MICROCARB

Last updated on Sat Oct 25 2025 00:02:33 GMT+0000 (Coordinated Universal Time)

1 64899U 25156A 25297.70792984 .00001037 00000+0 17322-3 0 9994 2 64899 98.0065 13.8327 0015295 307.6261 52.3557 14.71937244 13325
UTC large
Height (km)
Speed (km/s)
/
Latitude / Longitude
Inclination (degrees)
Orbital Period (minutes)
Azimuth
Elevation
Range (km)
Doppler Factor

Next 0 passes for location: London (51.5072 / 0.1276)

Sorry there are no passes over London.